Weather History for Green Bay, WI

Change the Weather History Date:

Saturday, May 3, 2014

  Actual Average Record
Temperature  
Mean Temperature 51 °F 51 °F  
Max Temperature 59 °F 62 °F 86 °F (1949)
Min Temperature 43 °F 40 °F 27 °F (1967)
Degree Days  
Heating Degree Days 14 14  
Month to date heating degree days 50 44  
Since 1 July heating degree days 8521 7581  
Cooling Degree Days 0 0  
Month to date cooling degree days 0 0  
Year to date cooling degree days 0 2  
Growing Degree Days 1 (Base 50)    
Moisture  
Dew Point 40 °F    
Average Humidity 72    
Maximum Humidity 100    
Minimum Humidity 43    
Precipitation  
Precipitation T in 0.08 in 1.25 in (2012)
Month to date precipitation 0.03 0.25  
Year to date precipitation 7.74 6.97  
Snow  
Snow 0.00 in 0.00 in T in (1976)
Month to date snowfall 0.0 0.0  
Since 1 July snowfall 72.1 51.2  
Snow Depth 0.00 in    
Sea Level Pressure  
Sea Level Pressure 29.71 in    
Wind  
Wind Speed 11 mph (WNW)    
Max Wind Speed 26 mph    
Max Gust Speed 35 mph    
Visibility 10 miles    
Events      
T = Trace of Precipitation, MM = Missing Value Source: NWS Daily Summary

Daily Weather History Graph

Daily Weather History Graph

Search for Another Location

Airport:

Trip Planner

Search our weather history database for the weather conditions in past years. The results will help you decide how hot, cold, wet, or windy it might be!

Date:

Astronomy

May. 03, 2014 Rise Set
Actual Time 5:40 AM CDT 7:59 PM CDT
Civil Twilight 5:07 AM CDT 8:31 PM CDT
Nautical Twilight 4:27 AM CDT 9:11 PM CDT
Astronomical Twilight 3:43 AM CDT 9:57 PM CDT
Moon 9:07 AM CDT (5/3) No Moon Set
Length of Visible Light 15h 23m
Length of Day
14h 19m
Waxing Crescent, 20% of the Moon is Illuminated
May 3
Waxing Crescent
May 6
First Quarter
May 14
Full
May 21
Last Quarter
May 28
New

Hourly Weather History & Observations

Time (CDT) Temp. Windchill Dew Point Humidity Pressure Visibility Wind Dir Wind Speed Gust Speed Precip Events Conditions
12:53 AM 46.0 °F - 43.0 °F 89% 29.65 in 10.0 mi Calm Calm - N/A   Overcast
1:53 AM 45.0 °F - 43.0 °F 93% 29.64 in 9.0 mi Calm Calm - N/A   Overcast
2:53 AM 45.0 °F 43.5 °F 43.0 °F 93% 29.63 in 9.0 mi WNW 3.5 mph - 0.00 in   Overcast
3:53 AM 45.0 °F - 44.1 °F 97% 29.62 in 8.0 mi Calm Calm - N/A   Overcast
4:53 AM 44.6 °F 42.2 °F 42.8 °F 93% 29.62 in 7.0 mi West 4.6 mph - N/A   Mostly Cloudy
5:53 AM 45.0 °F 42.6 °F 43.0 °F 93% 29.63 in 10.0 mi West 4.6 mph - N/A   Overcast
6:53 AM 45.0 °F 40.1 °F 42.1 °F 90% 29.65 in 10.0 mi West 9.2 mph - N/A   Mostly Cloudy
7:53 AM 48.0 °F - 43.0 °F 83% 29.65 in 10.0 mi West 11.5 mph - 0.00 in   Clear
8:53 AM 48.9 °F - 41.0 °F 74% 29.67 in 10.0 mi WNW 18.4 mph 23.0 mph N/A   Mostly Cloudy
9:53 AM 48.9 °F - 39.9 °F 71% 29.68 in 10.0 mi NW 17.3 mph 26.5 mph N/A   Overcast
10:02 AM 50.0 °F - 39.9 °F 68% 29.67 in 10.0 mi WNW 13.8 mph - N/A   Overcast
10:53 AM 51.1 °F - 39.9 °F 66% 29.70 in 10.0 mi NW 16.1 mph 28.8 mph N/A   Overcast
11:53 AM 51.1 °F - 39.9 °F 66% 29.71 in 10.0 mi West 19.6 mph - N/A   Overcast
12:53 PM 54.0 °F - 39.9 °F 59% 29.72 in 10.0 mi WNW 21.9 mph 28.8 mph N/A   Mostly Cloudy
1:53 PM 55.9 °F - 37.9 °F 51% 29.73 in 10.0 mi WNW 19.6 mph 25.3 mph N/A   Scattered Clouds
2:53 PM 57.0 °F - 37.0 °F 47% 29.73 in 10.0 mi WNW 16.1 mph 21.9 mph N/A   Overcast
3:53 PM 57.0 °F - 37.0 °F 47% 29.73 in 10.0 mi West 18.4 mph - N/A   Overcast
4:53 PM 55.9 °F - 39.0 °F 53% 29.76 in 10.0 mi WNW 18.4 mph 23.0 mph 0.00 in   Mostly Cloudy
5:53 PM 57.0 °F - 35.1 °F 44% 29.77 in 10.0 mi West 15.0 mph - N/A   Scattered Clouds
6:53 PM 54.0 °F - 36.0 °F 51% 29.78 in 10.0 mi WNW 10.4 mph - N/A   Clear
7:53 PM 52.0 °F - 37.0 °F 57% 29.80 in 10.0 mi West 9.2 mph - N/A   Scattered Clouds
8:53 PM 50.0 °F - 36.0 °F 59% 29.82 in 10.0 mi West 8.1 mph - N/A   Scattered Clouds
9:53 PM 48.0 °F - 37.0 °F 66% 29.83 in 10.0 mi West 4.6 mph - N/A   Overcast
10:53 PM 44.1 °F 41.5 °F 36.0 °F 73% 29.83 in 10.0 mi West 4.6 mph - N/A   Partly Cloudy
11:53 PM 45.0 °F 43.5 °F 35.1 °F 68% 29.83 in 10.0 mi WSW 3.5 mph - N/A   Overcast